BEL87V EBBR-EGCC

Flight info

Callsign BEL87V
Flight time 1h 1m
Altitude 34000
Route DENUT L610 LAM UN57 WELIN T420 ELVOS
Aircraft A320/M-SDE3FGHIRWY/LB1

Departure

Time 2026-05-01 13:56
Airport Brussels Airport (EBBR)

Arrival

Time 2026-05-01 14:57
Airport Manchester Airport (EGCC)
Time Latitude Longitude Altitude Speed Heading
2026-05-01 13:32 50.90405 4.48598 193 ft 0 kts 155°
2026-05-01 13:42 50.90406 4.48598 193 ft 0 kts 155°
2026-05-01 13:43 50.90412 4.48594 193 ft 2 kts 155°
2026-05-01 13:43 50.90425 4.48584 193 ft 2 kts 155°
2026-05-01 13:43 50.90439 4.48574 193 ft 2 kts 155°
2026-05-01 13:43 50.90453 4.48564 193 ft 2 kts 155°
2026-05-01 13:44 50.90466 4.48554 193 ft 2 kts 155°
2026-05-01 13:44 50.90480 4.48544 193 ft 2 kts 157°
2026-05-01 13:44 50.90493 4.48546 193 ft 2 kts 220°
2026-05-01 13:44 50.90498 4.48555 193 ft 0 kts 250°
2026-05-01 13:45 50.90499 4.48564 193 ft 0 kts 245°
2026-05-01 13:47 50.90498 4.48560 193 ft 1 kts 244°
2026-05-01 13:47 50.90490 4.48532 193 ft 3 kts 244°
2026-05-01 13:47 50.90475 4.48480 193 ft 6 kts 244°
2026-05-01 13:47 50.90453 4.48406 193 ft 7 kts 244°
2026-05-01 13:48 50.90428 4.48322 193 ft 9 kts 244°
2026-05-01 13:48 50.90398 4.48225 193 ft 10 kts 244°
2026-05-01 13:48 50.90366 4.48120 193 ft 11 kts 245°
2026-05-01 13:48 50.90400 4.48033 193 ft 10 kts 350°
2026-05-01 13:49 50.90445 4.48103 193 ft 10 kts 63°
2026-05-01 13:49 50.90479 4.48216 193 ft 11 kts 65°
2026-05-01 13:49 50.90514 4.48337 193 ft 12 kts 65°
2026-05-01 13:50 50.90543 4.48441 193 ft 13 kts 66°
2026-05-01 13:50 50.90580 4.48576 193 ft 14 kts 66°
2026-05-01 13:50 50.90620 4.48726 193 ft 15 kts 67°
2026-05-01 13:50 50.90670 4.48886 193 ft 16 kts 65°
2026-05-01 13:51 50.90708 4.49059 193 ft 16 kts 98°
2026-05-01 13:51 50.90621 4.49153 193 ft 15 kts 155°
2026-05-01 13:51 50.90521 4.49229 193 ft 16 kts 154°
2026-05-01 13:51 50.90418 4.49302 193 ft 16 kts 157°
2026-05-01 13:52 50.90353 4.49413 193 ft 15 kts 68°
2026-05-01 13:52 50.90327 4.49539 193 ft 14 kts 173°
2026-05-01 13:52 50.90230 4.49503 193 ft 14 kts 195°
2026-05-01 13:52 50.90131 4.49461 193 ft 15 kts 194°
2026-05-01 13:53 50.90022 4.49417 193 ft 17 kts 193°
2026-05-01 13:53 50.89769 4.49314 193 ft 20 kts 194°
2026-05-01 13:53 50.89631 4.49255 193 ft 20 kts 206°
2026-05-01 13:54 50.89503 4.49166 193 ft 19 kts 194°
2026-05-01 13:54 50.89375 4.49112 193 ft 16 kts 199°
2026-05-01 13:54 50.89265 4.49070 193 ft 16 kts 192°
2026-05-01 13:54 50.89155 4.49038 193 ft 13 kts 166°
2026-05-01 13:55 50.89164 4.49148 193 ft 16 kts 69°
2026-05-01 13:55 50.89288 4.49693 193 ft 88 kts 69°
2026-05-01 13:55 50.89581 4.50941 193 ft 149 kts 68°
2026-05-01 13:55 50.89980 4.52645 462 ft 172 kts 73°
2026-05-01 13:56 50.90380 4.54421 1082 ft 176 kts 71°
2026-05-01 13:56 50.90874 4.56177 1779 ft 178 kts 66°
2026-05-01 13:56 50.91533 4.57898 2215 ft 194 kts 45°
2026-05-01 13:56 50.92798 4.58769 2508 ft 215 kts
2026-05-01 13:57 50.94247 4.58040 2850 ft 230 kts 319°
2026-05-01 13:57 50.95240 4.56007 3218 ft 243 kts 290°
2026-05-01 13:57 50.95866 4.53400 3606 ft 262 kts 286°
2026-05-01 13:57 50.96522 4.50639 4260 ft 271 kts 288°
2026-05-01 13:58 50.97256 4.47913 5136 ft 271 kts 290°
2026-05-01 13:58 50.98043 4.45222 5928 ft 275 kts 291°
2026-05-01 13:58 50.98883 4.42490 6810 ft 275 kts 292°
2026-05-01 13:58 50.99738 4.39789 7662 ft 276 kts 292°
2026-05-01 13:59 51.00601 4.37101 8485 ft 278 kts 293°
2026-05-01 13:59 51.01488 4.34357 9296 ft 281 kts 293°
2026-05-01 13:59 51.02378 4.31617 10146 ft 281 kts 293°
2026-05-01 13:59 51.03270 4.28866 10907 ft 285 kts 294°
2026-05-01 14:00 51.04196 4.26014 11392 ft 298 kts 294°
2026-05-01 14:00 51.05141 4.23107 12087 ft 302 kts 294°
2026-05-01 14:00 51.06104 4.20159 12876 ft 303 kts 294°
2026-05-01 14:00 51.07080 4.17173 13644 ft 304 kts 294°
2026-05-01 14:01 51.08040 4.14227 14373 ft 305 kts 293°
2026-05-01 14:01 51.09010 4.11240 15089 ft 306 kts 293°
2026-05-01 14:01 51.09983 4.08241 15787 ft 307 kts 292°
2026-05-01 14:01 51.10969 4.05196 16472 ft 308 kts 292°
2026-05-01 14:02 51.11940 4.02191 17134 ft 308 kts 292°
2026-05-01 14:02 51.12921 3.99155 17779 ft 309 kts 291°
2026-05-01 14:02 51.13900 3.96118 18403 ft 310 kts 291°
2026-05-01 14:02 51.14886 3.93056 19013 ft 311 kts 291°
2026-05-01 14:03 51.15858 3.90032 19597 ft 312 kts 291°
2026-05-01 14:03 51.16851 3.86941 20170 ft 313 kts 291°
2026-05-01 14:03 51.17839 3.83855 20680 ft 316 kts 291°
2026-05-01 14:03 51.18834 3.80747 21214 ft 317 kts 290°
2026-05-01 14:04 51.19828 3.77639 21753 ft 318 kts 290°
2026-05-01 14:04 51.20834 3.74492 22285 ft 319 kts 290°
2026-05-01 14:04 51.21835 3.71359 22798 ft 320 kts 290°
2026-05-01 14:04 51.22492 3.69213 23138 ft 319 kts 288°
2026-05-01 14:05 51.23552 3.64868 23811 ft 315 kts 282°
2026-05-01 14:05 51.24141 3.61535 24317 ft 313 kts 278°
2026-05-01 14:05 51.24613 3.58155 24789 ft 313 kts 278°
2026-05-01 14:05 51.25071 3.54784 25239 ft 314 kts 277°
2026-05-01 14:06 51.25528 3.51385 25682 ft 314 kts 277°
2026-05-01 14:06 51.25982 3.47973 26082 ft 316 kts 277°
2026-05-01 14:06 51.26349 3.45132 26242 ft 324 kts 281°
2026-05-01 14:06 51.26598 3.43207 26354 ft 328 kts 279°
2026-05-01 14:07 51.27078 3.39731 26921 ft 326 kts 282°
2026-05-01 14:07 51.27542 3.36139 27075 ft 336 kts 282°
2026-05-01 14:07 51.27717 3.34782 27140 ft 339 kts 281°
2026-05-01 14:08 51.28636 3.27916 28567 ft 321 kts 276°
2026-05-01 14:08 51.29072 3.24446 28942 ft 321 kts 276°
2026-05-01 14:08 51.29511 3.20939 29266 ft 323 kts 276°
2026-05-01 14:08 51.29955 3.17399 29617 ft 324 kts 276°
2026-05-01 14:09 51.30400 3.13859 29819 ft 328 kts 276°
2026-05-01 14:09 51.30849 3.10297 30038 ft 331 kts 276°
2026-05-01 14:09 51.31307 3.06678 30334 ft 332 kts 276°
2026-05-01 14:09 51.31765 3.03051 30630 ft 333 kts 276°
2026-05-01 14:10 51.32222 2.99428 30909 ft 334 kts 276°
2026-05-01 14:10 51.32679 2.95791 31176 ft 335 kts 275°
2026-05-01 14:10 51.33134 2.92153 31432 ft 336 kts 275°
2026-05-01 14:10 51.33594 2.88465 31681 ft 337 kts 275°
2026-05-01 14:11 51.34049 2.84800 31920 ft 338 kts 275°
2026-05-01 14:11 51.34961 2.77415 32399 ft 339 kts 275°
2026-05-01 14:11 51.35419 2.73711 32625 ft 340 kts 275°
2026-05-01 14:12 51.35875 2.70032 32838 ft 341 kts 275°
2026-05-01 14:12 51.36332 2.66344 33041 ft 341 kts 275°
2026-05-01 14:12 51.36791 2.62624 33240 ft 341 kts 275°
2026-05-01 14:12 51.37252 2.58863 33424 ft 342 kts 275°
2026-05-01 14:13 51.37709 2.55141 33596 ft 342 kts 275°
2026-05-01 14:13 51.38013 2.52648 33707 ft 343 kts 275°
2026-05-01 14:13 51.38615 2.47706 33938 ft 343 kts 275°
2026-05-01 14:13 51.39070 2.43955 34126 ft 342 kts 275°
2026-05-01 14:14 51.39970 2.36499 34195 ft 343 kts 275°
2026-05-01 14:14 51.40872 2.28990 34201 ft 343 kts 274°
2026-05-01 14:15 51.41766 2.21540 34200 ft 342 kts 274°
2026-05-01 14:15 51.42661 2.14030 34200 ft 342 kts 274°
2026-05-01 14:16 51.43541 2.06570 34200 ft 342 kts 274°
2026-05-01 14:16 51.44432 1.99026 34200 ft 343 kts 275°
2026-05-01 14:17 51.45996 1.91720 34200 ft 356 kts 286°
2026-05-01 14:17 51.48548 1.84810 34201 ft 364 kts 291°
2026-05-01 14:18 51.51309 1.77996 34201 ft 363 kts 292°
2026-05-01 14:18 51.53588 1.72380 34201 ft 363 kts 292°
2026-05-01 14:19 51.56801 1.64461 34198 ft 363 kts 292°
2026-05-01 14:19 51.59556 1.57660 34193 ft 363 kts 292°
2026-05-01 14:20 51.63657 1.47512 34184 ft 363 kts 292°
2026-05-01 14:21 51.66404 1.40694 34179 ft 363 kts 292°
2026-05-01 14:21 51.69144 1.33874 34179 ft 363 kts 291°
2026-05-01 14:22 51.73239 1.23650 34175 ft 362 kts 291°
2026-05-01 14:22 51.75963 1.16827 34175 ft 362 kts 291°
2026-05-01 14:23 51.78686 1.09988 34175 ft 361 kts 291°
2026-05-01 14:23 51.81385 1.03195 34175 ft 361 kts 291°
2026-05-01 14:24 51.84089 0.96371 34174 ft 360 kts 291°
2026-05-01 14:24 51.86777 0.89564 34174 ft 360 kts 291°
2026-05-01 14:25 51.89465 0.82737 34174 ft 360 kts 291°
2026-05-01 14:25 51.92135 0.75941 34174 ft 360 kts 291°
2026-05-01 14:26 51.96149 0.65688 34174 ft 360 kts 291°
2026-05-01 14:27 51.98823 0.58837 34174 ft 360 kts 291°
2026-05-01 14:27 52.01504 0.51948 34174 ft 360 kts 291°
2026-05-01 14:28 52.05493 0.41666 34170 ft 360 kts 291°
2026-05-01 14:28 52.08152 0.34787 34167 ft 360 kts 290°
2026-05-01 14:29 52.10864 0.27753 34162 ft 360 kts 290°
2026-05-01 14:30 52.16217 0.13817 34153 ft 360 kts 290°
2026-05-01 14:31 52.20166 0.03485 34149 ft 360 kts 290°
2026-05-01 14:31 52.22809 -0.03454 34148 ft 360 kts 290°
2026-05-01 14:32 52.25427 -0.10347 34146 ft 360 kts 290°
2026-05-01 14:32 52.28055 -0.17284 34141 ft 360 kts 290°
2026-05-01 14:33 52.30674 -0.24218 34135 ft 360 kts 290°
2026-05-01 14:33 52.33303 -0.31196 33788 ft 359 kts 290°
2026-05-01 14:33 52.34606 -0.34660 33340 ft 358 kts 290°
2026-05-01 14:34 52.35894 -0.38091 32727 ft 357 kts 290°
2026-05-01 14:34 52.37191 -0.41555 32037 ft 357 kts 290°
2026-05-01 14:34 52.38477 -0.44988 31549 ft 352 kts 291°
2026-05-01 14:34 52.39741 -0.48363 31025 ft 349 kts 291°
2026-05-01 14:35 52.40999 -0.51731 30479 ft 346 kts 291°
2026-05-01 14:35 52.42249 -0.55084 29925 ft 344 kts 291°
2026-05-01 14:35 52.43488 -0.58416 29328 ft 343 kts 291°
2026-05-01 14:35 52.44713 -0.61711 28797 ft 340 kts 291°
2026-05-01 14:36 52.45925 -0.64973 28296 ft 336 kts 291°
2026-05-01 14:36 52.47139 -0.68247 27814 ft 333 kts 291°
2026-05-01 14:36 52.48334 -0.71472 27351 ft 330 kts 291°
2026-05-01 14:36 52.49507 -0.74640 26904 ft 326 kts 291°
2026-05-01 14:37 52.50670 -0.77785 26452 ft 323 kts 291°
2026-05-01 14:37 52.51833 -0.80938 25992 ft 320 kts 291°
2026-05-01 14:37 52.52969 -0.84021 25542 ft 317 kts 291°
2026-05-01 14:37 52.54107 -0.87114 25090 ft 315 kts 291°
2026-05-01 14:38 52.55238 -0.90190 24639 ft 313 kts 291°
2026-05-01 14:38 52.56346 -0.93212 24204 ft 311 kts 292°
2026-05-01 14:38 52.57456 -0.96239 23782 ft 308 kts 292°
2026-05-01 14:38 52.58546 -0.99214 23355 ft 306 kts 292°
2026-05-01 14:39 52.59642 -1.02210 22908 ft 305 kts 292°
2026-05-01 14:39 52.60739 -1.05213 22456 ft 304 kts 292°
2026-05-01 14:39 52.61830 -1.08200 22002 ft 304 kts 292°
2026-05-01 14:39 52.62909 -1.11156 21553 ft 303 kts 292°
2026-05-01 14:40 52.63980 -1.14100 21155 ft 301 kts 292°
2026-05-01 14:40 52.65048 -1.17038 20760 ft 299 kts 292°
2026-05-01 14:40 52.66117 -1.19983 20344 ft 298 kts 292°
2026-05-01 14:40 52.67178 -1.22910 19923 ft 298 kts 293°
2026-05-01 14:41 52.68230 -1.25812 19523 ft 297 kts 294°
2026-05-01 14:41 52.69407 -1.28649 19130 ft 300 kts 300°
2026-05-01 14:41 52.70770 -1.31263 18729 ft 304 kts 305°
2026-05-01 14:41 52.72319 -1.33664 18316 ft 309 kts 311°
2026-05-01 14:42 52.73966 -1.35893 17896 ft 310 kts 312°
2026-05-01 14:42 52.75659 -1.38137 17464 ft 311 kts 313°
2026-05-01 14:42 52.77336 -1.40353 17037 ft 311 kts 313°
2026-05-01 14:42 52.79017 -1.42578 16609 ft 311 kts 313°
2026-05-01 14:43 52.80694 -1.44802 16183 ft 311 kts 313°
2026-05-01 14:43 52.82377 -1.47037 15754 ft 311 kts 314°
2026-05-01 14:43 52.84053 -1.49265 15330 ft 311 kts 314°
2026-05-01 14:43 52.85871 -1.51228 14847 ft 321 kts 326°
2026-05-01 14:44 52.87928 -1.52805 14292 ft 328 kts 329°
2026-05-01 14:44 52.92106 -1.55825 13239 ft 330 kts 329°
2026-05-01 14:44 52.94190 -1.57370 12780 ft 328 kts 329°
2026-05-01 14:45 52.96258 -1.58928 12338 ft 326 kts 329°
2026-05-01 14:45 53.00325 -1.62034 11421 ft 323 kts 329°
2026-05-01 14:45 53.02382 -1.63620 10908 ft 324 kts 329°
2026-05-01 14:46 53.04417 -1.65195 10445 ft 323 kts 329°
2026-05-01 14:46 53.08340 -1.68225 10148 ft 300 kts 329°
2026-05-01 14:46 53.10220 -1.69683 9812 ft 297 kts 329°
2026-05-01 14:47 53.12102 -1.71156 9382 ft 298 kts 329°
2026-05-01 14:47 53.13962 -1.72609 9014 ft 296 kts 329°
2026-05-01 14:47 53.15797 -1.74043 8668 ft 294 kts 329°
2026-05-01 14:48 53.19451 -1.76893 8044 ft 286 kts 329°
2026-05-01 14:48 53.21237 -1.78290 7726 ft 283 kts 329°
2026-05-01 14:48 53.24776 -1.81066 7064 ft 279 kts 330°
2026-05-01 14:49 53.28256 -1.83796 6444 ft 273 kts 330°
2026-05-01 14:49 53.31654 -1.86469 5829 ft 268 kts 330°
2026-05-01 14:50 53.33891 -1.88233 5413 ft 265 kts 330°
2026-05-01 14:50 53.38269 -1.91689 4595 ft 259 kts 331°
2026-05-01 14:51 53.39901 -1.92980 4284 ft 257 kts 331°
2026-05-01 14:51 53.43116 -1.95525 3670 ft 253 kts 331°
2026-05-01 14:52 53.45960 -1.98222 3573 ft 219 kts 305°
2026-05-01 14:52 53.46520 -2.00375 3506 ft 193 kts 270°
2026-05-01 14:52 53.45952 -2.04343 3412 ft 159 kts 248°
2026-05-01 14:53 53.45486 -2.05914 3188 ft 145 kts 241°
2026-05-01 14:53 53.44958 -2.07299 2977 ft 138 kts 238°
2026-05-01 14:53 53.44418 -2.08625 2803 ft 138 kts 237°
2026-05-01 14:53 53.43852 -2.09922 2629 ft 137 kts 235°
2026-05-01 14:54 53.43270 -2.11181 2457 ft 137 kts 234°
2026-05-01 14:54 53.42678 -2.12425 2283 ft 136 kts 233°
2026-05-01 14:54 53.42074 -2.13674 2104 ft 136 kts 233°
2026-05-01 14:54 53.41482 -2.14892 1926 ft 136 kts 233°
2026-05-01 14:55 53.40882 -2.16124 1742 ft 135 kts 233°
2026-05-01 14:55 53.40289 -2.17343 1558 ft 135 kts 233°
2026-05-01 14:55 53.39697 -2.18563 1374 ft 135 kts 233°
2026-05-01 14:55 53.39113 -2.19787 1186 ft 134 kts 233°
2026-05-01 14:56 53.38525 -2.20989 996 ft 134 kts 232°
2026-05-01 14:56 53.37930 -2.22170 840 ft 133 kts 233°
2026-05-01 14:56 53.37347 -2.23393 676 ft 133 kts 233°
2026-05-01 14:56 53.36774 -2.24594 478 ft 133 kts 233°
2026-05-01 14:57 53.36189 -2.25793 309 ft 132 kts 233°
2026-05-01 14:57 53.35267 -2.27719 259 ft 64 kts 231°
2026-05-01 14:57 53.35002 -2.28268 259 ft 39 kts 234°
2026-05-01 14:58 53.34950 -2.28549 259 ft 17 kts 264°
2026-05-01 14:58 53.34940 -2.28716 259 ft 4 kts 264°
2026-05-01 14:58 53.34942 -2.28736 259 ft 0 kts 308°
2026-05-01 14:58 53.34948 -2.28750 259 ft 5 kts 308°
2026-05-01 14:59 53.34989 -2.28779 259 ft 7 kts 14°
2026-05-01 14:59 53.35030 -2.28727 259 ft 8 kts 57°
2026-05-01 14:59 53.35066 -2.28645 259 ft 9 kts 52°
2026-05-01 14:59 53.35107 -2.28558 259 ft 10 kts 51°
2026-05-01 15:00 53.35167 -2.28434 259 ft 0 kts 51°
2026-05-01 15:02 53.35172 -2.28423 259 ft 2 kts 51°
2026-05-01 15:02 53.35180 -2.28408 259 ft 3 kts 51°
2026-05-01 15:02 53.35202 -2.28362 259 ft 4 kts 51°
2026-05-01 15:02 53.35229 -2.28307 259 ft 9 kts 51°
2026-05-01 15:03 53.35285 -2.28204 259 ft 12 kts 46°
2026-05-01 15:03 53.35349 -2.28092 259 ft 13 kts 45°
2026-05-01 15:03 53.35418 -2.27979 259 ft 14 kts 41°
2026-05-01 15:03 53.35506 -2.27911 259 ft 14 kts
2026-05-01 15:04 53.35608 -2.27898 259 ft 14 kts
2026-05-01 15:04 53.35713 -2.27883 259 ft 15 kts
2026-05-01 15:04 53.35820 -2.27866 259 ft 14 kts
2026-05-01 15:04 53.35887 -2.27854 259 ft 7 kts
2026-05-01 15:05 53.35931 -2.27847 259 ft 1 kts
2026-05-01 15:05 53.35943 -2.27844 259 ft 0 kts
2026-05-01 15:05 53.35946 -2.27844 259 ft 2 kts
2026-05-01 15:05 53.35982 -2.27838 259 ft 6 kts
2026-05-01 15:06 53.36030 -2.27829 259 ft 7 kts
2026-05-01 15:06 53.36078 -2.27865 259 ft 8 kts 310°
2026-05-01 15:06 53.36119 -2.27937 259 ft 9 kts 315°
2026-05-01 15:06 53.36174 -2.28033 259 ft 12 kts 314°
2026-05-01 15:07 53.36240 -2.28147 259 ft 13 kts 315°
2026-05-01 15:07 53.36309 -2.28264 259 ft 14 kts 314°
2026-05-01 15:07 53.36380 -2.28387 259 ft 14 kts 313°
2026-05-01 15:07 53.36454 -2.28515 259 ft 15 kts 315°
2026-05-01 15:08 53.36529 -2.28645 259 ft 14 kts 314°
2026-05-01 15:08 53.36599 -2.28769 259 ft 14 kts 327°
2026-05-01 15:08 53.36675 -2.28701 259 ft 11 kts 47°
2026-05-01 15:08 53.36727 -2.28607 259 ft 0 kts 47°
2026-05-01 15:09 53.36729 -2.28603 259 ft 1 kts 61°
2026-05-01 15:09 53.36715 -2.28533 259 ft 10 kts 133°
2026-05-01 15:09 53.36691 -2.28488 259 ft 0 kts 131°